CST,Max TemperatureF,Mean TemperatureF,Min TemperatureF,Max Dew PointF,MeanDew PointF,Min DewpointF,Max Humidity, Mean Humidity, Min Humidity, Max Sea Level PressureIn, Mean Sea Level PressureIn, Min Sea Level PressureIn, Max VisibilityMiles, Mean VisibilityMiles, Min VisibilityMiles, Max Wind SpeedMPH, Mean Wind SpeedMPH, Max Gust SpeedMPH,PrecipitationIn, CloudCover, Events, WindDirDegrees
2012-12-1,69,53,37,50,45,37,100,74,46,30.34,30.29,30.25,10,7,0,13,4,16,0.00,2,Fog,149
2012-12-2,71,60,50,50,47,44,88,65,45,30.35,30.29,30.25,10,10,7,16,7,20,0.00,1,,179
2012-12-3,70,60,49,54,50,46,90,72,47,30.31,30.25,30.21,10,10,10,13,5,17,0.00,1,,178
2012-12-4,67,62,57,61,57,52,99,87,75,30.29,30.23,30.19,10,9,3,16,7,22,0.12,5,Rain,176
2012-12-5,57,54,50,57,54,46,100,97,83,30.28,30.19,30.12,10,5,0,8,4,18,0.31,7,Fog-Rain,29
2012-12-6,69,59,49,54,50,44,95,73,55,30.13,30.08,30.03,10,10,5,10,4,,0.00,1,,130
2012-12-7,61,56,50,56,51,44,96,84,76,30.06,30.02,29.96,10,10,5,9,6,,0.00,6,,147
2012-12-8,65,61,57,60,58,55,100,95,79,30.03,30.00,29.96,10,5,0,13,6,,0.00,8,Fog-Rain,179
2012-12-9,67,62,58,60,57,56,99,86,67,30.06,29.99,29.87,10,8,2,17,9,23,0.01,5,Rain,176
2012-12-10,65,50,34,63,50,31,99,94,85,29.99,29.84,29.73,10,7,2,20,10,28,0.50,8,Rain-Thunderstorm,274
2012-12-11,38,34,31,31,29,27,90,80,65,30.22,30.11,29.99,10,10,10,12,6,17,0.00,4,,356
2012-12-12,49,39,29,27,25,19,85,64,31,30.32,30.25,30.20,10,10,10,9,6,16,0.00,0,,1
2012-12-13,56,40,25,35,28,23,94,74,29,30.38,30.33,30.29,10,10,7,6,1,,0.00,0,,1
2012-12-14,57,43,29,41,35,28,96,71,46,30.35,30.27,30.15,10,10,5,10,2,,0.00,0,,121
2012-12-15,61,53,45,54,46,37,86,74,63,30.18,30.08,29.97,10,10,10,18,7,26,0.00,4,Rain,166
2012-12-16,59,56,54,59,56,54,99,96,86,29.98,29.91,29.81,10,7,0,17,9,25,1.54,8,Rain-Thunderstorm,170
2012-12-17,60,54,48,56,53,45,99,93,79,29.84,29.77,29.70,10,8,2,13,7,17,0.01,5,Rain,205
2012-12-18,57,44,32,44,37,32,100,74,40,30.01,29.95,29.84,10,8,0,10,5,17,0.00,1,Fog,209
2012-12-19,66,52,39,44,39,37,92,60,34,30.10,30.02,29.94,10,10,10,10,6,16,0.00,0,,171
2012-12-20,58,46,35,58,39,19,99,70,50,30.04,29.84,29.67,10,9,1,22,11,33,0.81,5,Rain,226
2012-12-21,44,37,30,19,16,14,56,45,29,30.29,30.18,30.03,10,10,10,15,9,26,0.00,0,,294
2012-12-22,53,38,23,27,17,10,72,50,23,30.37,30.28,30.19,10,10,10,9,2,,0.00,0,,290
2012-12-23,51,43,35,47,32,24,97,61,41,30.18,30.10,29.95,10,10,2,14,8,20,0.30,4,Rain,190
2012-12-24,64,54,43,55,49,43,100,89,58,29.97,29.90,29.84,10,8,0,13,6,17,0.12,5,Fog-Rain,222
2012-12-25,52,46,39,51,46,39,100,97,92,29.99,29.84,29.48,10,4,0,16,4,29,1.95,7,Fog-Rain-Thunderstorm,77
2012-12-26,53,42,31,52,33,27,96,89,83,30.11,29.81,29.44,10,9,2,17,11,28,0.07,8,Rain-Snow,269
2012-12-27,35,30,26,28,27,26,98,85,72,30.18,30.12,30.08,10,9,5,9,5,17,0.00,6,,351
2012-12-28,41,34,27,40,33,26,98,88,73,30.10,29.96,29.77,10,9,3,17,4,23,0.46,7,Rain,117
2012-12-29,41,36,30,41,30,22,99,84,73,30.36,30.10,29.83,10,9,2,14,6,21,0.03,7,Rain,299
2012-12-30,42,33,24,27,23,20,94,72,42,30.51,30.42,30.36,10,10,10,8,4,17,0.00,1,,354
2012-12-31,49,40,30,43,29,24,86,62,49,30.36,30.26,30.06,10,10,10,13,6,20,0.00,3,,156